Smyrna, TN

12:43 PM CST on February 20, 2018 (GMT -0600)
Smyrna

Weather History for KMQY - June, 2013

Change the Weather History Date:

Tuesday, June 4, 2013

  Actual Average Record
Temperature  
Mean Temperature 70 °F -  
Max Temperature 86 °F 78 °F 99 °F (2011)
Min Temperature 56 °F 63 °F 56 °F (2013)
Cooling Degree Days 5    
Growing Degree Days 20 (Base 50)    
Moisture  
Dew Point 59 °F    
Average Humidity 67    
Maximum Humidity 93    
Minimum Humidity 40    
Precipitation  
Precipitation 0.00 in - - ()
Sea Level Pressure  
Sea Level Pressure 30.04 in    
Wind  
Wind Speed 2 mph (ESE)    
Max Wind Speed 7 mph    
Max Gust Speed -    
Visibility 10 miles    
Events Rain    
Averages and records for this station are not official NWS values.
T = Trace of Precipitation, MM = Missing Value Source: NWS Daily Summary

Daily Weather History Graph

Daily Weather History Graph

Search for Another Location

Airport or City:

Trip Planner

Search our weather history database for the weather conditions in past years. The results will help you decide how hot, cold, wet, or windy it might be!

Date:

Astronomy

Jun. 04, 2013 Rise Set
Actual Time 5:29 AM CDT 7:59 PM CDT
Civil Twilight 4:59 AM CDT 8:29 PM CDT
Nautical Twilight 4:22 AM CDT 9:06 PM CDT
Astronomical Twilight 3:42 AM CDT 9:47 PM CDT
Moon 2:53 AM CDT (6/4) 4:33 PM CDT (6/4)
Length of Visible Light 15h 29m
Length of Day
14h 29m
Waning Crescent, 14% of the Moon is Illuminated
Jun 4
Waning Crescent
Jun 8
New
Jun 16
First Quarter
Jun 23
Full
Jun 29
Last Quarter

Hourly Weather History & Observations

Time (CDT) Temp. Heat Index Dew Point Humidity Pressure Visibility Wind Dir Wind Speed Gust Speed Precip Events Conditions
12:56 AM 63.0 °F - 55.9 °F 78% 30.05 in 10.0 mi Calm Calm - N/A   Clear
1:56 AM 61.0 °F - 55.9 °F 83% 30.04 in 10.0 mi Calm Calm - N/A   Clear
2:56 AM 59.0 °F - 55.9 °F 90% 30.05 in 10.0 mi Calm Calm - N/A   Clear
3:56 AM 56.8 °F - 54.0 °F 90% 30.06 in 10.0 mi Calm Calm - N/A   Clear
4:56 AM 56.8 °F - 54.0 °F 90% 30.06 in 10.0 mi Calm Calm - N/A   Clear
5:56 AM 56.8 °F - 54.9 °F 93% 30.07 in 10.0 mi Calm Calm - N/A   Clear
6:56 AM 61.9 °F - 57.9 °F 87% 30.08 in 10.0 mi NNW 4.6 mph - N/A   Clear
7:56 AM 65.8 °F - 57.9 °F 76% 30.08 in 10.0 mi Variable 4.6 mph - N/A   Clear
8:56 AM 70.9 °F - 59.9 °F 68% 30.09 in 10.0 mi East 3.5 mph - N/A   Clear
9:56 AM 73.9 °F - 61.0 °F 64% 30.08 in 10.0 mi Variable 3.5 mph - N/A   Clear
10:56 AM 77.9 °F - 59.0 °F 52% 30.09 in 10.0 mi Variable 5.8 mph - N/A   Clear
11:56 AM 79.0 °F - 59.0 °F 50% 30.07 in 10.0 mi Variable 5.8 mph - N/A   Scattered Clouds
12:56 PM 79.0 °F - 59.0 °F 50% 30.06 in 10.0 mi SSE 4.6 mph - N/A   Scattered Clouds
1:56 PM 81.9 °F 82.1 °F 59.0 °F 46% 30.04 in 10.0 mi South 4.6 mph - N/A   Scattered Clouds
2:56 PM 83.8 °F 83.3 °F 57.9 °F 41% 30.04 in 10.0 mi ESE 4.6 mph - N/A   Clear
3:56 PM 82.9 °F 82.6 °F 57.9 °F 42% 30.02 in 10.0 mi Variable 5.8 mph - N/A   Partly Cloudy
4:56 PM 84.9 °F 84.2 °F 57.9 °F 40% 30.00 in 10.0 mi Calm Calm - N/A   Clear
5:56 PM 84.9 °F 84.4 °F 59.0 °F 41% 29.99 in 10.0 mi East 6.9 mph - N/A   Scattered Clouds
6:56 PM 81.9 °F 82.1 °F 59.0 °F 46% 30.00 in 10.0 mi Calm Calm - 0.00 in Rain Light Rain
7:56 PM 77.9 °F - 61.0 °F 56% 30.01 in 10.0 mi Calm Calm - N/A   Partly Cloudy
8:56 PM 70.9 °F - 63.0 °F 76% 30.01 in 10.0 mi Calm Calm - N/A   Clear
9:56 PM 68.9 °F - 63.0 °F 81% 30.02 in 10.0 mi Calm Calm - N/A   Clear
10:56 PM 65.8 °F - 61.9 °F 87% 30.03 in 10.0 mi Calm Calm - N/A   Clear
11:56 PM 65.8 °F - 61.0 °F 84% 30.03 in 10.0 mi Calm Calm - N/A   Clear